Location: Eschertshofen
(49.3064°N, 11.5756°E)
Time: 06:21:50
(UTC+00:00)

ARIANE 5 R/B - Pass Details

Date: 18 September 2020
Orbit: 620 x 657 km, 98.2° (Epoch: 09 October)

Event Time Altitude Azimuth Distance (km) Brightness Sun altitude
Exits shadow 19:37:43 48° 58° (ENE) 824 2.9 -22.2°
Drops below altitude 10° 19:41:39 10° 356° (N) 2,003 5.6 -22.8°
Sets 19:43:54 0° 351° (N) 2,912 6.6 -23.1°
